カタログに戻る

PROGRESS MS-34

運用中科学VLEO
NORAD 68837·PAYLOAD·🇷🇺 Russia

打ち上げ Apr 25, 2026 から Baikonur Cosmodrome

Loading…

次のパス (今後24時間)

TLE

最新Source: Space-Track

元期: Sep 14, 2026, 08:04 UTC

1 68837U 26093A   26257.33674855  .00005039  00000-0  99198-4 0  9992
2 68837  51.6309 218.8706 0004930 140.1239 220.0112 15.49109872586706

AllMySatでPROGRESS MS-34をリアルタイム追跡

Download on the App Store